Weather History for Chester, SC

Change the Weather History Date:

Saturday, April 20, 2013

  Actual Average (KUZA) Record (KUZA)
Temperature  
Mean Temperature 54 °F -  
Max Temperature 64 °F 74 °F 94 °F (1968)
Min Temperature 44 °F 49 °F 25 °F (1983)
Degree Days  
Heating Degree Days 11    
Growing Degree Days 4 (Base 50)    
Moisture  
Dew Point 39 °F    
Average Humidity 61    
Maximum Humidity 100    
Minimum Humidity 30    
Precipitation  
Precipitation 0.00 in - - ()
Sea Level Pressure  
Sea Level Pressure 30.12 in    
Wind  
Wind Speed 5 mph (NNW)    
Max Wind Speed 15 mph    
Max Gust Speed 17 mph    
Visibility 10 miles    
Events      
Averages and records for this station are not official NWS values.
T = Trace of Precipitation, MM = Missing Value Source: NWS Daily Summary

Daily Weather History Graph

Daily Weather History Graph

Search for Another Location

Airport:

Trip Planner

Search our weather history database for the weather conditions in past years. The results will help you decide how hot, cold, wet, or windy it might be!

Date:

Astronomy

Apr. 20, 2013 Rise Set
Actual Time 6:46 AM EDT 8:01 PM EDT
Civil Twilight 6:20 AM EDT 8:27 PM EDT
Nautical Twilight 5:48 AM EDT 8:58 PM EDT
Astronomical Twilight 5:16 AM EDT 9:31 PM EDT
Moon 2:55 PM EDT (4/20) 3:22 AM EDT (4/20)
Length of Visible Light 14h 07m
Length of Day
13h 14m
Waxing Gibbous, 71% of the Moon is Illuminated
Apr 20
Waxing Gibbous
Apr 25
Full
May 2
Last Quarter
May 9
New
May 18
First Quarter

Hourly Weather History & Observations

Time (EDT) Temp. Windchill Dew Point Humidity Pressure Visibility Wind Dir Wind Speed Gust Speed Precip Events Conditions
12:15 AM 53.6 °F - 51.8 °F 94% 29.94 in 10.0 mi WSW 5.8 mph - N/A   Overcast
12:35 AM 53.6 °F - 51.8 °F 94% 29.94 in 10.0 mi West 4.6 mph - N/A   Mostly Cloudy
12:55 AM 51.8 °F - 51.8 °F 100% 29.93 in 10.0 mi West 4.6 mph - N/A   Mostly Cloudy
1:15 AM 51.8 °F - 51.8 °F 100% 29.94 in 7.0 mi West 4.6 mph - N/A   Scattered Clouds
1:35 AM 51.8 °F - 51.8 °F 100% 29.94 in 10.0 mi West 5.8 mph - N/A   Clear
1:55 AM 51.8 °F - 51.8 °F 100% 29.95 in 10.0 mi West 5.8 mph - N/A   Clear
2:15 AM 51.8 °F - 50.0 °F 94% 29.97 in 10.0 mi West 3.5 mph - N/A   Clear
2:35 AM 51.8 °F - 46.4 °F 82% 29.97 in 10.0 mi Calm Calm - N/A   Clear
2:55 AM 50.0 °F - 46.4 °F 87% 29.98 in 10.0 mi Calm Calm - N/A   Clear
3:15 AM 50.0 °F - 46.4 °F 87% 29.99 in 10.0 mi WNW 3.5 mph - N/A   Clear
3:35 AM 50.0 °F - 42.8 °F 76% 29.98 in 10.0 mi NW 5.8 mph - N/A   Clear
3:55 AM 50.0 °F - 42.8 °F 76% 29.99 in 10.0 mi NW 4.6 mph - N/A   Clear
4:15 AM 48.2 °F - 42.8 °F 82% 30.00 in 10.0 mi NW 5.8 mph - N/A   Clear
4:35 AM 46.4 °F 44.3 °F 42.8 °F 87% 30.00 in 10.0 mi NW 4.6 mph - N/A   Clear
4:55 AM 46.4 °F 43.5 °F 42.8 °F 87% 30.01 in 10.0 mi NW 5.8 mph - N/A   Clear
5:15 AM 46.4 °F 44.3 °F 41.0 °F 81% 30.02 in 10.0 mi NNW 4.6 mph - N/A   Clear
5:35 AM 46.4 °F 43.5 °F 41.0 °F 81% 30.03 in 10.0 mi NNW 5.8 mph - N/A   Clear
5:55 AM 46.4 °F 43.5 °F 37.4 °F 71% 30.04 in 10.0 mi NNW 5.8 mph - N/A   Clear
6:15 AM 44.6 °F 41.4 °F 37.4 °F 76% 30.05 in 10.0 mi NNW 5.8 mph - N/A   Clear
6:35 AM 44.6 °F 41.4 °F 37.4 °F 76% 30.07 in 10.0 mi NW 5.8 mph - N/A   Clear
6:55 AM 44.6 °F 41.4 °F 37.4 °F 76% 30.08 in 10.0 mi NW 5.8 mph - N/A   Clear
7:15 AM 44.6 °F 41.4 °F 37.4 °F 76% 30.10 in 10.0 mi WNW 5.8 mph - N/A   Clear
7:35 AM 44.6 °F 42.2 °F 39.2 °F 81% 30.11 in 7.0 mi NW 4.6 mph - N/A   Clear
7:55 AM 44.6 °F 42.2 °F 39.2 °F 81% 30.12 in 7.0 mi NW 4.6 mph - N/A   Clear
8:15 AM 46.4 °F 43.5 °F 39.2 °F 76% 30.13 in 10.0 mi NNW 5.8 mph - N/A   Clear
8:35 AM 48.2 °F - 37.4 °F 66% 30.13 in 7.0 mi NNW 8.1 mph - N/A   Clear
8:55 AM 50.0 °F - 37.4 °F 62% 30.14 in 10.0 mi North 9.2 mph - N/A   Clear
9:15 AM 51.8 °F - 37.4 °F 58% 30.15 in 10.0 mi North 6.9 mph - N/A   Clear
9:35 AM 51.8 °F - 37.4 °F 58% 30.16 in 7.0 mi NNE 12.7 mph - N/A   Clear
9:55 AM 53.6 °F - 33.8 °F 47% 30.17 in 5.0 mi North 12.7 mph 16.1 mph N/A   Haze
10:15 AM 55.4 °F - 33.8 °F 44% 30.17 in 7.0 mi North 9.2 mph - N/A   Clear
10:35 AM 55.4 °F - 32.0 °F 41% 30.17 in 7.0 mi North 10.4 mph - N/A   Clear
10:55 AM 55.4 °F - 32.0 °F 41% 30.18 in 7.0 mi North 15.0 mph - N/A   Clear
11:15 AM 57.2 °F - 33.8 °F 41% 30.18 in 7.0 mi NNW 11.5 mph 17.3 mph N/A   Clear
11:35 AM 57.2 °F - 32.0 °F 38% 30.18 in 10.0 mi NNE 8.1 mph - N/A   Clear
11:55 AM 59.0 °F - 32.0 °F 36% 30.19 in 10.0 mi NNW 5.8 mph 9.2 mph N/A   Clear
12:15 PM 59.0 °F - 32.0 °F 36% 30.18 in 10.0 mi North 6.9 mph - N/A   Clear
12:55 PM 59.0 °F - 32.0 °F 36% 30.17 in 10.0 mi North 5.8 mph - N/A   Clear
1:15 PM 60.8 °F - 33.8 °F 36% 30.17 in 10.0 mi Calm Calm - N/A   Clear
1:35 PM 60.8 °F - 32.0 °F 34% 30.17 in 10.0 mi Calm Calm - N/A   Clear
1:55 PM 60.8 °F - 33.8 °F 36% 30.17 in 10.0 mi North 4.6 mph - N/A   Clear
2:15 PM 62.6 °F - 32.0 °F 32% 30.16 in 10.0 mi East 3.5 mph - N/A   Clear
2:35 PM 62.6 °F - 33.8 °F 34% 30.16 in 10.0 mi NE 5.8 mph - N/A   Clear
2:55 PM 62.6 °F - 33.8 °F 34% 30.15 in 10.0 mi NE 3.5 mph - N/A   Clear
3:15 PM 64.4 °F - 33.8 °F 32% 30.15 in 10.0 mi NNE 6.9 mph - N/A   Clear
3:35 PM 64.4 °F - 33.8 °F 32% 30.14 in 10.0 mi NNE 4.6 mph - N/A   Clear
3:55 PM 64.4 °F - 32.0 °F 30% 30.14 in 10.0 mi WNW 5.8 mph - N/A   Clear
4:15 PM 64.4 °F - 33.8 °F 32% 30.14 in 10.0 mi NNE 6.9 mph - N/A   Clear
4:35 PM 64.4 °F - 33.8 °F 32% 30.14 in 10.0 mi Calm Calm - N/A   Clear
4:55 PM 64.4 °F - 32.0 °F 30% 30.14 in 10.0 mi North 4.6 mph - N/A   Clear
5:15 PM 64.4 °F - 33.8 °F 32% 30.14 in 10.0 mi North 4.6 mph - N/A   Clear
5:35 PM 64.4 °F - 32.0 °F 30% 30.15 in 10.0 mi Calm Calm - N/A   Clear
5:55 PM 64.4 °F - 32.0 °F 30% 30.15 in 10.0 mi North 3.5 mph - N/A   Clear
6:15 PM 62.6 °F - 32.0 °F 32% 30.16 in 10.0 mi Calm Calm - N/A   Clear
6:35 PM 62.6 °F - 32.0 °F 32% 30.16 in 10.0 mi NNE 5.8 mph - N/A   Clear
6:55 PM 62.6 °F - 33.8 °F 34% 30.16 in 10.0 mi NE 3.5 mph - N/A   Clear
7:15 PM 60.8 °F - 37.4 °F 42% 30.17 in 10.0 mi Calm Calm - N/A   Clear
7:35 PM 57.2 °F - 37.4 °F 48% 30.18 in 10.0 mi Calm Calm - N/A   Clear
7:55 PM 55.4 °F - 37.4 °F 51% 30.19 in 10.0 mi Calm Calm - N/A   Clear
8:15 PM 53.6 °F - 41.0 °F 62% 30.19 in 10.0 mi Calm Calm - N/A   Clear
8:35 PM 51.8 °F - 41.0 °F 67% 30.20 in 10.0 mi Calm Calm - N/A   Clear
8:55 PM 51.8 °F - 42.8 °F 71% 30.21 in 10.0 mi Calm Calm - N/A   Clear
9:15 PM 50.0 °F - 41.0 °F 71% 30.22 in 10.0 mi Calm Calm - N/A   Clear
9:35 PM 50.0 °F - 41.0 °F 71% 30.23 in 10.0 mi Calm Calm - N/A   Clear
9:55 PM 50.0 °F - 41.0 °F 71% 30.24 in 7.0 mi Calm Calm - N/A   Clear
10:15 PM 50.0 °F - 39.2 °F 66% 30.25 in 10.0 mi Calm Calm - N/A   Clear
10:35 PM 46.4 °F - 41.0 °F 81% 30.26 in 10.0 mi Calm Calm - N/A   Clear
10:55 PM 48.2 °F - 41.0 °F 76% 30.25 in 10.0 mi Calm Calm - N/A   Clear
11:15 PM 46.4 °F - 41.0 °F 81% 30.27 in 10.0 mi Calm Calm - N/A   Clear
11:35 PM 48.2 °F - 41.0 °F 76% 30.26 in 10.0 mi Calm Calm - N/A   Clear
11:55 PM 46.4 °F 45.2 °F 41.0 °F 81% 30.27 in 10.0 mi North 3.5 mph - N/A   Clear